Tracking 25656 objects as of 21-May-2022
HD Live streaming from Space Station
objects crossing your sky now

ONEWEB-0278

Track ONEWEB-0278 now!
10-day predictions
ONEWEB-0278 is classified as:


NORAD ID: 48996
Int'l Code: 2021-061AF
Perigee: 1,203.4 km
Apogee: 1,206.3 km
Inclination: 87.9 °
Period: 109.4 minutes
Semi major axis: 7575 km
RCS: Unknown
Launch date: July 1, 2021
Source: United Kingdom (UK)
Launch site: VOSTOCHNY COSMODROME (VOSTO)
aabbcc
Your satellite tracking list
Your tracking list is empty




NASA's NSSDC Master Catalog

Two Line Element Set (TLE):
1 48996U 21060AF  22141.58335648 -.00008510  00000-0 -22312-1 0  9994
2 48996  87.9165 164.8409 0001891  87.5269  76.1674 13.16600413  1302
Source of the keplerian elements: AFSPC